Airfield :
LOGIN :

Register | Disclaimer

   EN    FR    IT 

 










Legend :    VFR   Marginal VFR   IFR   Intensive IFR   Very Intensive IFR
Visi :
Ceiling :
>= 8 km
>= 3000ft
5 to 8 km
1000 to 3000 ft
1500m to 5 km
500 to 1000 ft
800 to 1500m
200 to 500 ft
< 800m
< 200 ft
Symbols :   Thunderstorms  Fog  Heavy snow  Heavy precipitations  Wind > 20 kt
SIGMETs :     Misc.  Thunderstorms  Icing  Turbulence  Mountain Waves  Volcanic Ashes






- Airport Elevation : 325 ft
- IATA code : POX


LFPT - Pontoise

CURRENT METAR :
  • 281430Z AUTO 05013KT 020V090 CAVOK 23/04 Q1028

EXPIRED METARs :
  • 281400Z AUTO 05014KT CAVOK 23/04 Q1028
  • 281330Z AUTO 07011KT CAVOK 23/05 Q1028
  • 281300Z AUTO 07013KT 040V100 CAVOK 23/06 Q1028
  • 281230Z AUTO 06012KT 020V080 9999 NCD 22/08 Q1029
  • 281200Z AUTO 05011KT 020V080 CAVOK 22/08 Q1029

TAF N/A
ATIS : +33 1 30 30 52 08



MET'MAP, your aeronautical weather chart ! - Copyright ORBIFLY December 2007 - Disclaimer

ORBIFLY MET'MAP TEAM :

Programming & Development : Alexandra Zaïnal
Concept & original design : Baudouin d'Aumeries
Assistance for programming : Marc-Olivier Méhu
Technical & hardware support : Manuel Goepfert

Contact : metmap@orbifly.com




SOURCES & CREDITS :

   NOAA